Location: Chollas Creek
(32.7320°N, 117.0931°W)
Time: 12:35:58
(UTC+00:00)

Daily predictions for brighter satellites

Satellite Brightness Start Highest point End
(mag) Time Altitude Azimuth Time Altitude Azimuth Time Altitude Azimuth
USA 267 4.4 12:00:16 10° ESE 12:06:24 45° NE 12:12:33 10° NNW
Cosmos 1400 Rocket 4.2 12:03:15 10° SSE 12:06:53 38° E 12:10:31 10° NNE
CZ-2C R/B 4.3 12:04:32 10° NNW 12:07:05 18° WNW 12:07:45 17° W
ARIANE 5 R/B 4.5 12:05:01 10° NW 12:07:10 13° WNW 12:08:34 11° W
CZ-4B R/B 2.0 12:08:13 10° SSE 12:11:25 55° ENE 12:14:33 10° N
Cosmos 1745 Rocket 4.5 12:06:59 10° NNW 12:12:38 38° W 12:18:13 10° SSW
Cosmos 1455 2.9 12:09:32 10° S 12:13:17 57° E 12:17:06 10° NNE
SJ-6F 4.4 12:09:15 10° NNE 12:13:27 89° WNW 12:17:38 10° SSW
Landsat 5 4.1 12:10:53 10° SSW 12:14:20 31° W 12:17:56 10° NW
FENGYUN 3A 4.4 12:10:54 10° NNE 12:16:10 55° E 12:21:25 10° S
Cosmos 1300 4.2 12:15:09 17° W 12:16:12 18° WNW 12:18:55 10° NNW
Lacrosse 5 rocket 1.9 12:12:36 12° SSW 12:16:46 66° SE 12:21:21 10° NE
Meteor 2-1 Rocket 4.3 12:17:02 10° S 12:22:51 86° W 12:28:48 10° N
SeaSat 1 3.1 12:19:01 10° N 12:23:35 39° WNW 12:27:59 11° SW
ADEOS Rocket 4.0 12:16:38 10° SSE 12:24:10 72° ENE 12:31:55 10° N
ERS-2 3.2 12:24:23 10° SSW 12:27:21 24° W 12:30:20 10° NW
Cosmos 2058 3.1 12:25:02 10° N 12:29:13 80° E 12:33:25 10° S
DELTA 2 R/B (1) 4.3 12:27:55 10° SW 12:33:18 48° SSE 12:38:40 10° ENE
TSX-5 3.7 12:38:59 10° SW 12:42:02 41° WNW 12:45:03 10° N
SAR-Lupe-4 3.9 12:40:28 10° S 12:43:53 44° W 12:47:19 10° NNW
COSMO-SKYMED 1 4.4 12:40:12 10° SE 12:44:12 38° ENE 12:48:14 10° N
METEOR-M 4.2 12:39:52 10° NNE 12:45:15 90° W 12:50:35 10° SSW
